Regional Weather Roundup
Issued by NWS Wakefield, VA

Home | Current Version | Previous Version | Text Only | Print | Product List | Glossary Off
Versions: 1 2 3 4 5 6 7 8 9 10 11 12 13 14 15 16 17 18 19 20 21 22 23 24 25 26 27 28 29 30 31 32 33 34 35 36 37 38 39 40 41 42 43 44 45 46 47 48 49 50

250
ASUS41 KAKQ 252015
RWRAKQ

REGIONAL WEATHER ROUNDUP
NATIONAL WEATHER SERVICE WAKEFIELD VA
400 PM EDT SAT MAR 25 2017

Note: "fair" indicates few or no clouds below 12,000 feet with no
significant weather and/or obstructions to visibility. * = Denotes
station may not report precipitation (e.g., rain,snow,etc.),
thunder or fog.

VAZ042-051-052>054-056-252100-
NORTHERN VIRGINIA

CITY           SKY/WX    TMP DP  RH WIND       PRES   REMARKS
WASH NATIONAL  CLOUDY    78  52  40 CALM      30.14S
DULLES         CLOUDY    77  50  38 N5        30.14S
FORT BELVOIR   PTSUNNY   79  50  36 VRB7      30.13S
QUANTICO       MOSUNNY   69  52  54 S10       30.14S
FREDERICKSBRG* MOSUNNY   79  53  40 SW10      30.13S
STAFFORD*      MOSUNNY   78  50  37 S5        30.17S
WARRENTON      PTSUNNY   80  45  29 SW5       30.13S
CULPEPER*      CLOUDY    79  53  40 SW6       30.13F
MANASSAS*        N/A     80  51  36 CALM      30.13F
LEESBURG*      PTSUNNY   79  55  44 CALM      30.15R
WINCHESTER     CLOUDY    73  50  43 N5        30.15S
FRONT ROYAL*   CLOUDY    75  52  43 N5        30.13S
LURAY*         CLOUDY    77  52  41 CALM      30.13F
$$

VAZ048-049-060>072-079>083-252100-
CENTRAL AND SOUTH CENTRAL VIRGINIA

CITY           SKY/WX    TMP DP  RH WIND       PRES   REMARKS
RICHMOND       PTSUNNY   78  51  38 SW18      30.16F
CHESTERFIELD*  FAIR     N/A N/A N/A S13G20    30.18F
PETERSBURG*    PTSUNNY   74  48  39 SW12      30.19F
HANOVER        PTSUNNY   79  49  34 SW12      30.17F
TAPPAHANNOCK*  PTSUNNY   78  35  21 S10G18    30.16S
QUINTON*       FAIR      76  51  41 SW8G17    30.17S
CHARLOTTSVILLE MOSUNNY   81  50  33 S10       30.13F
GORDONSVILLE*  MOCLDY    79  52  38 S12G17    30.13F
ORANGE*        CLOUDY    79  50  36 SW8       30.14F
LOUISA*        PTSUNNY   81  54  39 SW8       30.14S
BUMPASS*       FAIR      78  51  38 SW6       30.14F
FARMVILLE*     CLOUDY    76  50  40 SW7       30.16S
CREWE*         FAIR      74  51  44 S9G17     30.19S
FORT PICKETT*  FAIR      74  42  32 SW9G21    30.19F
CHASE CITY*    FAIR      74  48  39 S7        30.20S
CLARKSVILLE*   FAIR      73  50  43 SW12      30.20F
SOUTH HILL*    MOSUNNY   73  53  48 S15       30.25F
LAWRENCEVILLE* FAIR      74  50  42 SW10      30.19F
EMPORIA*       MOSUNNY   73  50  43 S12G21    30.22F
$$

VAZ088>098-252100-
SOUTHEAST VIRGINIA

CITY           SKY/WX    TMP DP  RH WIND       PRES   REMARKS
NORFOLK        MOSUNNY   78  51  38 W12G20    30.18F
VIRGINIA BEACH PTSUNNY   75  49  39 SW15G23   30.18F
NORFOLK NAVAL  PTSUNNY   77  49  37 SW15      30.20F
WEST POINT*    SUNNY     78  47  33 SW15      30.18S
SALUDA*        FAIR      77  54  44 SW10G16   30.16S
NEWPORT NEWS   PTSUNNY   76  51  41 SW12      30.19F
LANGLEY AFB    MOSUNNY   75  53  46 SW14      30.18F
FORT EUSTIS    MOSUNNY   76  52  43 W8        30.17S
WILLIAMSBURG*  PTSUNNY   79  54  41 SW8G16    30.19S
HR EXEC AP*    FAIR      75  52  43 SW14G21   30.17F
FRANKLIN*      CLOUDY    75  50  40 W8        30.20F
US460-WAKEFLD  MOSUNNY   75  51  43 SW12G20   30.19F
$$

VAZ020-022-025-037-045-252100-
WEST CENTRAL AND SOUTHWEST VIRGINIA

CITY           SKY/WX    TMP DP  RH WIND       PRES   REMARKS
STAUNTON*      CLOUDY    75  50  41 S7        30.16F
WAYNESBORO*    MOCLDY    75  51  43 SW10      30.15F
HOT SPRINGS VA PTSUNNY   64  41  42 S8        30.24S
LYNCHBURG      CLOUDY    74  48  39 S9        30.19F
DANVILLE       CLOUDY    73  50  44 SW13      30.19F
SOUTH BOSTON*  FAIR      75  48  37 SW10G21   30.19F
MARTINSVILLE   CLOUDY    72  48  41 S9        30.22S
ROANOKE        CLOUDY    75  49  39 E12       30.18F
BLACKSBURG     PTSUNNY   70  49  46 S6        30.22F
DUBLIN*        CLOUDY    72  48  42 S9        30.20S
MARION*        PTSUNNY   72  46  40 SE13G18   30.19F
HILLSVILLE*    MOSUNNY   67  50  54 S6        30.21F
RICHLANDS*     FAIR      72  44  36 S6        30.17F
WISE*          PTSUNNY   72  41  33 S9G16     30.18F
ABINGDON*      SUNNY     74  45  35 W9        30.15F
$$

MDZ021>025-VAZ099-100-252100-
SOUTHERN MARYLAND AND THE DELMARVA PENINSULA

CITY           SKY/WX    TMP DP  RH WIND       PRES   REMARKS
PATUXENT RIVER PTSUNNY   67  55  65 E9        30.14F
BAY BRIDGE APT CLOUDY    73  54  49 SE8       30.15R
LEONARDTOWN    MOSUNNY   77  50  38 SW8       30.16S
DOVER          MOSUNNY   74  58  56 NE7       30.13R
GEORGETOWN     PTSUNNY   76  53  44 SW10      30.15F
EASTON         MOSUNNY   75  50  41 SW3       30.19S
CAMBRIDGE      SUNNY     75  52  43 S6        30.15S
SALISBURY      MOSUNNY   75  52  44 W12       30.16S
OCEAN CITY     CLOUDY    71  52  50 S7        30.16S
WALLOPS ISLAND MOSUNNY   75  53  46 W7        30.17F
ACCOMACK*      MOSUNNY   75  53  46 SW9G18    30.17F
$$

NCZ012>017-030>032-252100-
NORTH CENTRAL AND EASTERN NORTH CAROLINA

CITY           SKY/WX    TMP DP  RH WIND       PRES   REMARKS
ROANOKE RAPIDS FAIR      72  52  49 SW14      30.21F
RALEIGH        PTSUNNY   74  48  39 SW20      30.22F
ELIZABETH CITY MOSUNNY   74  50  42 SW16      30.22F
AHOSKIE*         N/A     73  52  46 SW7       30.22F
EDENTON*       MOSUNNY   76  51  42 SW7       30.23F
CURRITUCK*     MOSUNNY   75  49  39 SW13G18   30.22F
KILL DEVIL HLS NOT AVBL
MANTEO         MOSUNNY   65  52  61 S15       30.25F
CAPE HATTERAS  CLOUDY    69  55  60 SW12      30.28F
TARBORO*       NOT AVBL
GOLDSBORO      PTSUNNY   76  48  37 SW14      30.23S
WASHINGTON     PTSUNNY   75  52  43 SW14G20   30.24F
GREENVILLE     PTSUNNY   75  50  41 SW9G16    30.24F
NEW BERN       MOSUNNY   76  51  41 S14       30.26F
WILMINGTON     CLOUDY    73  51  46 S9G20     30.27F
$$

VAZ048-252100-
ELSEWHERE

CITY           SKY/WX    TMP DP  RH WIND       PRES   REMARKS
HARRISBURG PA  CLOUDY    76  53  44 NW7       30.12S
BALTIMORE      CLOUDY    78  52  40 W7        30.12F
ANNAPOLIS      CLOUDY    60  50  69 SE10      30.15S
ANDREWS AFB    CLOUDY    77  51  39 SE3       30.13F
PHILADELPHIA   CLOUDY    75  52  44 N10       30.15R
HENDERSON NC   MOSUNNY   70  47  44 SW10G20   30.22S
GREENSBORO     CLOUDY    72  49  44 SW13      30.21F
ROCKY MOUNT    MOSUNNY   75  51  43 SW12      30.22F
$$

VAZ100-252100-
MARINE

STATION/POSITION TIME  TEMP    WIND        PRES    WAVE   SWELL
                       AIR SEA DIR/SP/G            HT/PER HT/PER
                 (UTC) (F)     (DEG/KT/KT) (MB)    (FT/S) (FT/S)
CAPE MAY NJ      1948   69 45  180/  3/  4 1020.5F
LEWES DE         1942   72 46  100/  3/  4 1020.7F
OCEAN-CITY-INLET 1942   53 49  200/  8/ 13 1021.8F
WACHAPREAGUE VA  1942   74 56  230/  8/ 14 1021.4F
THOMAS POINT MD  2000   65 45  150/ 11/ 11   N/A
GOOSES REEF MD   2000   54 47  170/ 10/ 10 1021.3    1
COVE POINT MD    1942   58     180/ 11/ 13 1021.4F
SOLOMONS ISLAND  1942   64 46  100/  5/  8   N/A
BISHOPS HEAD MD  1942   51 52  150/  9/ 10 1021.5F
PINEY POINT MD   1942          150/  5/  5   N/A
POTOMAC MD       2000   53 51  120/  8/  8 1020.2    0
CAMBRIDGE MD     1942   66 46   50/  2/  3 1020.2F
LEWISETTA VA     1942   73 49  280/  7/  9 1020.5F
RAPPAHANNOCK LGT 1942          170/ 11/ 11 1022.2F
STINGRAY PT      2000   63 49  250/  8/ 10 1022.2    1
YORK RVR RNG VA  1942   70     230/ 17/ 18 1021.1F
YORKTOWN VA      1942   74 50  250/ 12/ 18 1021.5F
JAMESTOWN VA     2000   71 53  230/ 10/ 14   N/A
DOMINION TERM VA 1942   67     230/ 10/ 11 1022.2F
KIPTOPEKE VA     1942      49  250/ 12/ 14   N/A
CHES BAY BRIDGE  1942   67 49  250/ 10/ 12 1022.2F
CAPE HENRY VA    1942   76     240/ 11/ 16   N/A
WILLOUBY STN VA  1942   70     240/ 14/ 14 1022.8F
S CRANEY ISL VA  1942   74     230/ 10/ 14 1021.9F
CAPE HENRY BUOY  1942      50                N/A     2/ 5
CAPE CHARLES BUO 1951      48                N/A     2/ 6
OFFSHORE WE BUOY 1951      49                N/A     2/ 6
64NM E OF VA BCH 1950   54 49  210/ 14/ 16 1023.7F   3/ 5   2/10
DUCK PIER NC     1942   70 47  220/ 10/ 11 1023.5F
44100 DUCK FRF   1935      51                N/A     2/ 5
44056 DUCK FRF   1930      50                N/A     1/10
OREGON INLET NC  1942   61 56  190/ 15/ 18 1024.6F
HATTERAS NC      1942   68 57  220/  9/ 14 1025.3F
DIAMOND SHLS NC  1950   71 77  230/ 16/ 17 1025.4F   3/ 5   2/ 7
CAPE LOOKOUT NC  2000   69     240/  6/  8 1025.5F
$$




USA.gov is the U.S. government's official web portal to all federal, state and local government web resources and services.